Find Starlink 35562

NORAD ID: 66063 Int'l Des: 2025-235 Owner: SPXS Country: US Constellation: starlink operational
LEOCIRCULAR

現在のビュー

3D地球を読み込み中...

About Starlink 35562

Starlink 35562 (NORAD 66063) is a starlink constellation satellite (v2 mini) launched Oct 19, 2025 by SPXS of US. It operates in LEO, CIRCULAR orbit with a mass of 575.00 kg.

次回通過

Passes for default location (London). Set your location on the main map for personalized predictions.

高度履歴

Loading altitude history...

軌道要素

1 66063U 25235F 26262.88148721 .00016032 00000-0 48460-3 0 9992
2 66063 53.1564 62.5259 0001551 84.7222 275.3958 15.34400565 52664
Epoch: Sep 19, 2026 • Age: 26 hours

現在のステータス

高度 465.6 km
遠地点 / 近地点 N/A
速度 7.63 km/s
衛星直下点 -10.15°S, 99.73°W
打ち上げ日 Oct 19, 2025
運用期間 0.9 years
タイプ internet

技術仕様

分類 Payload
質量 575.00 kg
乾燥質量 530.00 kg
長さ 0.30 m
スパン 29.00 m
形状 ? Box + pan
製造者 SPXS
バスタイプ Starlink V2MO
フェーズステータス In Orbit
所有者/国 SPXS/US

Most Searched